FW1828 Weather Reports


time (UTC)temp
F
wind
direction
speed
knots
gust
knots
rain 1hr
in
rain 24hr
in
rain mn
in
humidity
%
barometer
mb
20260906101510 67 223 0.0 1.7 0.00 0.05 0.00 97 1012.7
20260906100016 67 46 0.0 0.9 0.00 0.05 0.00 97 1012.5
20260906094511 67 46 0.9 1.7 0.00 0.05 0.00 97 1012.3
20260906093015 67 46 0.0 0.9 0.00 0.05 0.00 96 1012.3
20260906091511 67 314 0.0 1.7 0.00 0.05 0.00 96 1012.3
20260906090009 67 216 0.9 1.7 0.00 0.05 0.00 97 1012.1
20260906084510 67 201 0.9 1.7 0.00 0.05 0.00 96 1012.1
20260906083006 67 231 0.0 1.7 0.00 0.05 0.00 96 1012.0
20260906081505 67 213 0.0 1.7 0.00 0.05 0.00 96 1012.2
20260906080005 68 269 0.0 1.7 0.00 0.05 0.00 96 1012.1
20260906074503 68 327 0.0 1.7 0.00 0.05 0.00 96 1012.1
20260906073005 68 79 0.0 0.9 0.00 0.05 0.00 96 1011.8
20260906071559 68 46 0.0 0.9 0.00 0.05 0.00 95 1011.9
20260906071501 68 28 0.0 0.9 0.00 0.05 0.00 95 1011.9
20260906070057 69 108 0.0 0.9 0.00 0.05 0.00 95 1012.1
20260906064556 69 56 0.0 0.9 0.00 0.05 0.00 95 1012.4
20260906063055 69 28 0.0 3.5 0.00 0.05 0.00 95 1012.6
20260906061554 69 206 0.0 4.3 0.00 0.05 0.00 95 1012.6
20260906060118 70 178 1.7 3.5 0.00 0.05 0.00 95 1012.5
20260906054608 70 264 1.7 4.3 0.00 0.05 0.00 95 1012.6
20260906053054 70 46 0.0 1.7 0.00 0.05 0.00 95 1012.6
20260906051558 70 135 0.0 1.7 0.00 0.05 0.00 95 1012.8
20260906050053 70 218 0.9 4.3 0.00 0.05 0.00 96 1012.7
20260906044503 70 246 1.7 4.3 0.00 0.05 0.00 96 1012.8
20260906043100 70 314 0.9 2.6 0.00 0.05 0.00 96 1012.8
20260906041600 70 269 0.0 3.5 0.00 0.05 0.00 96 1012.9
20260906040057 70 46 0.0 1.7 0.00 0.05 0.05 96 1013.0
20260906034558 70 314 0.0 1.7 0.00 0.05 0.05 96 1013.2
20260906033045 70 216 0.9 1.7 0.00 0.05 0.05 96 1013.2
20260906031542 71 89 0.0 1.7 0.00 0.05 0.05 96 1013.2
20260906030044 71 269 0.0 3.5 0.00 0.05 0.05 96 1013.2
20260906024554 71 46 0.9 1.7 0.00 0.05 0.05 95 1013.2
20260906023051 71 46 0.0 1.7 0.00 0.05 0.05 95 1013.1
20260906021557 71 46 0.0 1.7 0.00 0.05 0.05 95 1013.0
20260906020050 71 28 0.0 0.9 0.00 0.05 0.05 95 1012.7
20260906014557 72 269 0.0 1.7 0.00 0.05 0.05 95 1012.6
20260906013057 72 117 0.0 1.7 0.00 0.05 0.05 94 1012.8
20260906011557 72 28 0.0 1.7 0.00 0.05 0.05 94 1012.6
20260906010136 72 206 0.0 1.7 0.00 0.05 0.05 93 1012.2
20260906004556 73 1 0.0 0.9 0.00 0.05 0.05 93 1012.2
20260906003045 73 229 1.7 2.6 0.00 0.05 0.05 92 1011.8
20260906001558 74 257 0.9 1.7 0.00 0.05 0.05 91 1011.6
20260906000045 75 1 0.0 1.7 0.00 0.05 0.05 90 1011.4
20260905234503 76 46 0.9 1.7 0.00 0.05 0.05 88 1011.3
20260905233001 78 1 0.0 1.7 0.00 0.05 0.05 85 1011.4
20260905231505 79 178 0.0 1.7 0.00 0.05 0.05 84 1011.3
20260905230001 81 46 0.0 1.7 0.00 0.05 0.05 80 1011.4
20260905224558 82 178 0.9 2.6 0.00 0.05 0.05 78 1011.5
20260905223058 84 269 1.7 3.5 0.00 0.05 0.05 69 1011.5
20260905221601 84 252 1.7 3.5 0.00 0.05 0.05 68 1011.4
20260905220100 84 274 1.7 7.0 0.00 0.05 0.05 68 1011.5
20260905214553 83 223 3.5 8.7 0.00 0.05 0.05 68 1011.7
20260905213052 83 211 1.7 7.8 0.00 0.05 0.05 69 1011.7
20260905211552 83 46 1.7 4.3 0.00 0.05 0.05 72 1011.7
20260905210107 81 250 0.9 4.3 0.00 0.17 0.05 74 1011.4
20260905204542 80 200 3.5 6.1 0.00 0.17 0.05 74 1011.3
20260905203042 81 243 3.5 7.8 0.00 0.17 0.05 71 1011.4
20260905201541 82 239 3.5 8.7 0.00 0.17 0.05 70 1011.7
20260905200107 81 196 2.6 7.0 0.00 0.17 0.05 76 1011.5
20260905194545 80 223 4.3 11.3 0.00 0.17 0.05 80 1011.8
20260905193044 80 276 4.3 10.4 0.00 0.17 0.05 80 1011.1
20260905191543 79 258 4.3 7.8 0.00 0.17 0.05 79 1011.2
20260905190043 79 243 2.6 5.2 0.00 0.17 0.05 79 1011.2
20260905184549 76 269 2.6 5.2 0.00 0.17 0.05 84 1011.5
20260905183044 74 274 3.5 7.0 0.01 0.17 0.05 88 1011.8
20260905181545 74 250 1.7 5.2 0.05 0.17 0.05 90 1012.1
20260905180041 74 197 2.6 4.3 0.05 0.17 0.05 92 1012.6
20260905174533 77 178 0.9 6.1 0.05 0.17 0.05 84 1013.3
20260905173042 80 298 7.0 14.8 0.05 0.17 0.05 72 1013.4
20260905171536 89 338 9.6 16.5 0.00 0.12 0.00 63 1013.4
20260905170032 90 284 4.3 8.7 0.00 0.12 0.00 64 1012.9
20260905164529 91 271 5.2 10.4 0.00 0.12 0.00 64 1013.4
20260905163027 91 274 5.2 10.4 0.00 0.12 0.00 65 1013.4
20260905161523 90 213 1.7 7.0 0.00 0.12 0.00 68 1013.3
20260905160022 90 213 4.3 7.8 0.00 0.12 0.00 65 1013.5
20260905154521 89 335 3.5 6.1 0.00 0.12 0.00 69 1013.5
20260905153027 88 236 2.6 6.1 0.00 0.12 0.00 69 1013.4
20260905151516 87 250 3.5 7.8 0.00 0.12 0.00 69 1013.4
20260905150019 87 233 1.7 5.2 0.00 0.12 0.00 72 1013.4
20260905144513 85 202 2.6 6.1 0.00 0.12 0.00 75 1013.5
20260905143006 84 206 1.7 5.2 0.00 0.12 0.00 77 1013.7
20260905141503 83 231 3.5 7.0 0.00 0.12 0.00 79 1013.7
20260905140057 81 259 3.5 7.0 0.00 0.12 0.00 82 1013.6
20260905134557 79 303 1.7 6.1 0.00 0.12 0.00 85 1013.6
20260905133052 78 264 2.6 6.1 0.00 0.12 0.00 86 1013.8
20260905131558 76 232 2.6 6.1 0.00 0.12 0.00 90 1013.8
20260905130045 75 214 2.6 5.2 0.00 0.12 0.00 93 1014.0
20260905124538 73 223 1.7 7.8 0.00 0.12 0.00 96 1014.1
20260905123056 71 223 0.9 3.5 0.00 0.12 0.00 97 1014.1
20260905121530 70 135 0.0 2.6 0.00 0.12 0.00 98 1014.1
20260905120031 69 223 0.9 3.5 0.00 0.12 0.00 98 1014.0
20260905114548 68 46 0.0 2.6 0.00 0.12 0.00 97 1014.0
20260905113044 68 269 0.0 1.7 0.00 0.12 0.00 97 1013.7
20260905111549 68 1 0.9 1.7 0.00 0.12 0.00 97 1013.5
20260905110041 68 286 0.0 0.9 0.00 0.12 0.00 97 1013.4
20260905104528 68 206 0.0 0.9 0.00 0.12 0.00 97 1013.4
20260905103035 68 46 0.0 1.7 0.00 0.12 0.00 97 1013.2